Torna al catalogo

DELTA 1 DEB

AttivoSSO
NORAD 12190·DEBRIS·🇺🇸 United States

Lanciato Mar 5, 1978 da Vandenberg Space Force Base

Loading…

Prossimi Passaggi (prossime 24 ore)

TLE

AggiornatoSource: Space-Track

Epoca: Sep 14, 2026, 15:40 UTC

1 12190U 78026AF  26257.65346630 -.00000042  00000-0  20609-5 0  9990
2 12190  99.0981 213.5298 0018444 352.1363 183.6053 14.02515641329329

Traccia DELTA 1 DEB in tempo reale con AllMySat

Download on the App Store